Theta_e
310 308 309 309 308 310 311 309 309 308 309 311 310 310 308 305 305 304 303 302 302 301 302 304 304 306 307 308 309 309 310 310 312 315 318 319 319 319 319 317 317 316 316 316
309 309 309 309 308 309 309 310 309 309 309 310 311 311 305 303 303 303 301 300 300 300 302 302 303 305 305 306 306 306 307 307 307 308 308 310 311 311 312 312 312 313 313 313
311 312 310 309 309 310 310 310 311 312 311 309 310 310 307 303 302 301 301 300 300 300 301 301 302 302 303 304 304 305 305 305 305 305 305 305 305 305 305 305 305 305 304 305
310 310 311 310 311 310 313 311 311 312 310 311 309 312 308 304 302 300 299 299 299 299 299 299 299 299 299 300 300 301 301 301 301 301 302 302 303 303 302 302 302 302 303 303
314 313 312 312 311 311 313 310 310 309 308 309 309 310 308 304 304 301 299 299 298 297 297 297 297 297 298 298 299 299 300 300 300 300 300 299 299 298 298 298 299 299 298 299
312 310 309 310 309 310 308 308 308 306 307 311 309 310 311 305 305 301 300 299 298 297 297 296 296 296 297 297 297 297 297 298 297 297 297 296 295 295 295 295 295 295 294 294
311 310 309 308 309 308 308 307 311 313 312 314 309 310 311 305 303 302 300 299 297 297 296 296 297 297 296 296 295 295 295 295 293 294 294 293 293 292 292 292 291 292 292 292
313 314 309 307 309 309 306 308 312 312 313 313 309 313 310 301 301 301 300 298 297 296 297 297 296 295 295 294 293 293 293 293 292 292 291 291 290 290 290 290 290 290 290 290
313 313 308 307 308 309 308 309 309 309 294 306 310 307 303 300 299 298 298 297 297 297 297 296 295 295 294 293 292 291 291 290 290 290 289 289 289 289 289 289 288 288 288 288
311 312 310 308 308 307 309 307 311 308 307 308 309 309 309 302 300 297 296 296 297 297 296 296 295 294 292 292 290 289 289 289 288 288 288 288 288 287 287 287 286 286 286 286
309 310 310 309 309 309 308 309 309 309 308 306 305 307 305 304 301 298 297 298 299 298 297 295 294 293 292 291 290 289 289 289 288 288 287 288 288 287 287 286 286 286 285 285
309 310 307 310 306 306 307 308 308 313 311 306 307 310 301 303 301 299 298 299 299 298 296 295 293 292 292 291 290 289 289 288 288 288 287 288 287 287 286 286 285 285 285 284
310 310 304 310 307 306 307 307 306 305 303 307 308 308 300 300 300 301 301 301 300 298 296 294 292 292 292 290 290 289 288 288 288 287 287 287 287 287 286 285 285 284 283 283
308 306 307 312 308 305 305 306 305 304 303 306 306 303 302 300 299 300 300 300 300 297 295 292 292 291 291 290 290 289 288 288 288 287 287 287 286 285 284 284 283 283 283 283
306 310 305 304 305 305 304 305 305 303 303 306 305 304 302 299 298 299 299 298 296 292 291 291 291 291 290 289 289 288 287 287 287 287 287 286 284 283 283 283 282 282 282 282
299 305 302 303 298 299 302 302 304 303 303 301 302 303 298 300 295 295 296 295 291 290 290 290 290 290 289 289 288 288 287 287 287 286 285 284 283 283 282 282 282 282 282 281
301 299 301 304 292 293 297 297 302 303 301 303 302 300 291 288 291 292 292 291 290 290 290 290 290 289 289 288 288 288 287 287 286 285 283 283 282 282 282 281 281 281 281 280
296 294 292 293 287 292 296 291 292 299 296 294 292 288 290 292 292 292 293 291 290 289 289 289 289 289 289 288 287 287 287 286 284 283 283 282 282 281 281 281 280 280 279 278
295 296 291 297 288 291 295 291 290 292 292 290 292 290 292 291 289 289 290 290 290 289 289 289 289 289 288 287 287 287 286 284 283 282 282 281 280 280 280 280 280 278 277 276
293 294 298 281 290 292 287 287 289 289 289 286 290 288 289 288 286 287 291 290 289 289 289 289 289 288 288 287 287 286 284 282 282 281 280 280 279 279 279 278 278 277 276 275
291 293 298 287 292 287 288 289 289 288 290 287 291 292 290 286 291 291 291 290 289 289 289 289 288 287 287 286 285 284 282 281 280 280 279 279 278 277 277 277 276 276 275 273
289 292 288 291 292 292 289 289 290 291 290 292 292 292 291 292 291 291 290 290 290 289 289 289 288 287 286 286 284 282 281 280 280 279 278 277 277 276 276 276 276 274 273 272
288 289 288 291 291 289 289 292 292 292 293 292 292 291 291 291 290 290 290 290 289 289 289 288 287 286 286 284 282 280 280 280 279 278 278 277 276 276 275 275 274 273 272 271
287 286 287 287 288 288 290 292 293 292 292 292 291 291 290 290 290 290 290 290 289 289 288 287 286 285 284 282 280 280 279 279 278 278 277 276 276 275 275 274 273 272 271 270
289 287 284 285 288 289 290 291 292 292 292 291 291 290 290 290 290 290 290 289 289 288 288 286 286 285 282 280 280 279 278 277 277 276 275 275 275 275 274 273 272 271 271 269
288 286 288 287 291 291 291 292 291 291 291 291 291 290 290 290 290 290 290 289 288 288 286 285 285 283 280 280 279 278 277 276 275 275 274 274 274 274 273 272 272 273 271 270
Wind_Speed
4 4 8 12 10 2 3 5 5 4 6 0 6 5 6 17 12 18 19 21 23 25 24 23 22 21 19 16 14 14 11 12 8 7 7 6 3 2 2 0 3 5 7 10
3 7 11 3 5 6 5 5 6 4 6 4 5 7 5 14 9 15 19 21 23 24 26 27 27 28 29 28 28 25 23 20 19 16 15 12 9 7 6 4 3 4 6 8
8 6 4 8 6 6 4 6 4 7 3 3 1 4 2 5 15 19 18 22 23 25 25 24 25 27 26 27 27 26 27 27 25 21 17 15 13 10 7 9 8 8 7 6
7 6 6 4 6 8 4 7 7 4 4 4 1 4 3 4 5 8 13 19 22 23 24 24 24 25 25 25 23 22 21 21 20 18 16 15 16 16 17 15 14 12 12 11
6 4 4 5 9 6 7 4 5 3 3 1 2 2 3 7 4 4 9 15 18 19 21 22 23 23 22 21 20 19 18 18 17 16 16 16 15 15 13 11 10 11 13 13
5 2 3 6 2 6 5 5 6 4 3 2 8 7 4 6 7 8 12 17 18 18 19 19 19 18 18 17 15 15 14 15 14 13 13 14 14 13 12 13 14 15 15 15
2 4 2 3 4 2 3 5 1 2 1 5 4 3 3 6 3 17 20 20 19 17 16 15 14 14 13 13 13 12 12 13 14 14 14 14 15 15 17 17 19 20 21 22
6 4 8 6 6 6 6 7 5 7 4 3 1 6 3 2 15 25 26 24 20 16 12 10 10 10 11 11 10 10 11 11 11 12 13 13 13 15 17 18 20 22 24 25
6 5 1 3 3 5 5 5 3 5 3 3 4 1 1 4 7 18 24 23 20 16 11 8 7 6 7 7 7 9 9 10 11 12 11 11 12 14 15 17 19 21 23 26
6 2 1 1 3 2 4 4 2 2 2 5 4 5 4 8 12 10 14 23 21 16 12 8 5 4 6 7 8 10 11 13 15 17 19 21 24 25 25 26 27 28 28 28
5 3 2 3 6 7 2 1 0 2 4 5 2 5 2 15 17 17 20 26 23 19 14 10 6 4 4 4 7 10 11 13 15 19 20 21 24 25 28 31 33 35 38 38
5 4 4 7 1 2 2 7 7 5 5 2 2 8 7 8 20 23 24 26 21 18 15 11 7 7 7 4 1 7 9 11 13 16 19 19 22 26 30 33 35 37 41 43
7 1 2 6 1 2 4 4 4 4 3 8 6 6 5 9 14 22 22 19 18 17 16 14 12 10 7 4 4 9 12 14 17 20 20 20 23 28 31 34 36 39 44 47
4 3 8 12 5 4 4 5 5 5 4 5 8 3 3 5 8 15 14 13 17 18 18 16 15 13 10 9 9 13 13 15 19 20 21 24 27 30 33 37 41 43 45 48
3 6 2 2 4 2 1 4 10 8 7 9 5 9 11 10 9 15 16 17 21 19 18 16 14 13 12 11 11 14 16 19 21 23 26 28 29 32 37 40 43 46 47 48
2 4 3 1 4 4 4 9 7 6 4 6 3 17 8 15 11 12 18 22 23 19 16 14 15 14 15 15 14 16 18 20 23 26 27 28 32 37 39 43 46 47 48 50
5 6 4 5 3 3 8 10 17 11 7 10 13 12 7 5 12 19 22 24 22 17 13 14 16 17 16 15 15 17 20 23 26 27 29 32 36 39 42 45 48 48 50 52
5 5 2 3 2 3 3 1 3 15 5 7 0 3 5 6 13 15 21 24 18 11 9 15 18 19 18 17 17 19 23 25 27 28 31 34 37 41 44 47 48 49 50 52
2 5 2 4 4 7 6 6 7 7 9 9 9 4 6 6 10 10 21 17 14 8 10 14 19 20 18 18 20 23 25 26 27 30 33 35 38 41 44 46 49 49 50 51
2 4 2 3 5 9 5 3 4 6 6 10 14 9 11 15 2 5 19 19 13 12 11 14 20 21 20 20 23 25 26 27 29 31 34 37 38 41 43 44 46 47 48 49
3 1 9 4 5 9 5 5 4 6 7 9 17 14 16 6 14 5 11 11 11 14 16 18 21 21 20 21 23 25 25 27 31 34 37 39 39 40 40 43 44 44 45 46
7 8 4 3 4 10 11 6 7 5 9 16 17 18 17 16 17 18 11 11 15 18 21 22 22 21 21 23 25 25 26 29 32 36 38 38 38 38 39 41 42 41 41 42
2 7 6 10 7 1 27 10 23 14 11 17 17 15 14 17 20 22 17 18 20 21 22 24 24 23 23 24 24 24 27 31 35 37 38 37 38 38 38 39 39 40 39 39
5 7 3 4 4 7 18 24 15 23 22 18 16 13 17 19 19 22 24 22 22 23 24 24 23 22 22 22 22 25 29 33 35 36 36 36 38 38 38 37 36 37 37 38
7 9 6 3 5 2 14 22 23 25 23 24 20 21 22 21 22 24 23 23 24 24 25 24 23 23 20 21 23 26 30 31 32 33 33 34 35 37 37 36 35 35 35 34
11 6 4 5 14 11 15 22 22 29 29 29 29 29 28 26 26 24 23 23 24 25 25 24 23 21 20 22 23 27 29 30 31 31 30 31 33 35 35 36 37 30 32 33
Wind_Direction
170 121 205 206 202 184 179 196 222 255 269 318 246 244 338 343 63 113 115 110 102 94 92 90 87 86 87 88 90 90 103 99 116 140 157 158 173 183 184 185 279 284 284 279
60 224 229 132 173 206 239 243 254 280 264 169 270 282 55 37 52 106 111 107 104 101 96 91 89 88 84 82 81 82 83 87 89 92 94 94 89 85 68 41 350 319 301 287
189 210 170 180 192 192 207 197 211 222 322 286 282 289 148 58 74 94 109 117 114 104 97 91 87 82 82 80 75 74 74 74 73 70 73 76 75 80 78 57 39 23 2 340
244 237 190 176 220 157 208 212 220 222 138 228 82 269 169 119 75 84 115 120 116 111 106 97 88 82 76 72 71 69 67 65 62 60 56 51 49 42 38 31 26 19 14 8
236 192 174 188 221 161 227 151 170 168 151 48 285 96 257 130 158 157 135 126 115 109 101 94 88 83 77 72 66 62 60 60 57 46 39 35 37 40 33 23 13 6 3 357
224 228 208 204 98 162 140 97 47 56 89 255 224 174 226 191 187 156 158 143 130 118 107 99 91 85 80 75 71 65 57 58 49 41 37 27 21 19 7 359 352 350 346 343
224 226 240 177 106 46 100 96 307 347 341 230 130 132 272 327 233 162 155 152 142 131 120 106 95 89 84 75 66 59 51 47 41 31 24 19 10 5 360 356 349 343 338 336
167 242 174 191 192 180 185 166 166 211 201 241 104 232 241 32 117 139 152 153 150 145 132 115 97 78 69 61 55 51 44 40 30 24 20 13 3 0 355 348 342 338 335 330
164 267 161 156 142 145 191 186 175 102 28 51 224 338 152 120 122 141 157 164 165 161 150 133 113 91 84 80 67 47 38 30 21 16 7 357 353 346 340 336 331 327 324 321
197 151 137 142 103 28 166 164 89 14 169 238 272 268 207 194 180 172 176 181 179 175 172 166 148 117 100 76 54 40 29 20 15 10 5 360 356 352 349 344 340 336 331 326
149 134 235 112 197 183 134 200 102 157 154 179 248 256 244 192 182 182 188 189 189 190 189 182 160 141 126 86 44 24 12 6 358 352 346 343 339 337 335 334 332 329 325 323
190 142 172 201 125 305 233 205 170 196 218 226 160 257 327 181 177 177 190 196 198 203 197 188 180 174 174 167 23 0 341 335 329 327 324 321 320 321 323 323 322 319 317 316
182 57 47 341 341 2 223 202 155 109 62 207 191 256 25 115 148 182 188 197 203 205 199 197 196 198 199 216 275 316 314 306 309 312 309 310 308 308 310 312 312 312 311 309
44 113 184 220 192 130 182 201 193 156 177 176 224 208 193 169 166 183 193 200 208 204 200 202 205 210 213 230 262 292 288 289 294 303 305 306 305 306 308 309 309 308 307 305
107 238 174 10 29 53 267 229 187 192 210 208 243 223 190 192 194 204 215 210 195 186 187 195 203 208 212 234 272 286 291 295 300 300 301 302 304 306 308 309 310 311 310 308
196 188 125 171 16 24 284 238 217 227 211 266 246 269 166 204 212 192 203 195 188 186 197 210 214 212 231 251 275 286 293 294 295 298 301 304 307 310 312 313 314 313 311 310
159 134 132 229 31 44 287 222 209 215 209 207 226 241 163 175 195 189 187 190 189 196 212 215 215 233 248 261 278 287 294 297 299 301 304 307 310 313 315 316 315 314 312 312
133 99 64 137 31 215 262 346 346 229 254 206 282 202 184 179 203 208 196 192 190 198 224 229 236 243 247 258 266 283 293 297 299 301 305 309 313 315 316 316 315 314 315 314
57 129 119 172 197 310 267 200 176 171 254 194 210 176 153 151 162 188 195 200 201 238 287 254 247 243 248 263 280 290 294 296 299 304 308 312 314 315 316 315 315 316 316 316
57 34 150 127 173 218 247 271 158 103 279 218 196 168 163 154 139 238 215 212 227 276 276 254 240 243 256 272 285 289 293 298 303 308 312 314 316 316 316 316 315 316 317 315
117 139 213 196 227 283 222 195 121 110 242 165 189 196 172 184 218 254 185 211 260 261 260 245 239 249 263 276 286 290 297 303 309 312 314 316 317 317 317 315 316 316 317 315
157 164 200 149 203 265 163 116 174 192 142 163 186 201 212 238 248 231 231 263 264 262 253 249 249 259 271 283 289 295 301 306 310 312 315 316 315 316 316 316 318 318 319 316
241 192 184 188 206 174 175 197 203 175 183 205 208 212 228 243 247 235 255 277 272 265 250 246 251 261 275 284 289 296 304 309 312 313 314 315 314 316 319 320 322 321 322 320
245 169 200 100 223 213 207 217 224 227 234 236 224 243 245 240 249 245 264 267 262 253 246 248 255 266 275 283 291 302 308 309 310 311 313 314 316 318 321 323 325 323 325 323
201 133 149 264 266 188 238 229 239 246 244 242 240 255 249 249 254 255 262 263 260 246 246 254 262 270 277 287 298 305 306 308 310 311 314 315 317 320 323 324 327 328 327 321
170 152 166 214 224 211 246 259 263 252 253 262 262 260 257 254 257 261 263 260 249 244 250 254 261 270 281 292 305 308 310 311 312 313 314 318 320 322 325 324 326 331 326 323